CZ-6A DEB, 54402

Orbit data source: Space-Track

CZ-6A DEB, 54402 is space debris in SSO originally from a launch on Fri, 11 Nov 2022 UTC launched from the Taiyaun Space Center, China (TSC). Debris objects in space refer to the collection of defunct objects orbiting the Earth. Examples of debris include non-operational satellites, rocket bodies, and fragments generated from explosions, collisions, or faulty payload assembly.

Loading next visibility...
Identifier
54402, 2022-151EA
Orbit
SSO
Country
Flag of CNCN / PRC
Related business
Manufacturer
SAST
Mission
Spacecraft
Bus & Motor
Unknown
Mass
Unknown
Launch date (UTC)
2022-11-11 (4 years ago)
Launch vehicle
Unknown
Launch site
Taiyaun Space Center, China (TSC)
Object type
Payload
Rocket body
Debris
Shape & HBR
Unknown shape, 0.1 m
Radar Cross Section
Medium (>0.1 m² and <1 m²)

Expand to show TLE details & history
Last TLE update: 1 day ago

TLE from 1 day ago
0 CZ-6A DEB
1 54402U 22151EA  26235.35718021  .00001493  00000-0  76579-3 0  9995
2 54402  98.7204 203.7301 0145044  73.1226 288.5794 14.11552702193893
Epoch: 2026-08-23T08:34Z
TLE epoch observation values (Epoch: 2026-08-23T08:34:20.370Z)
Latitude
0.00007°
Longitude
103.49082°
Altitude
824.914 km
Speed
7.457 km/s
True Right ascension
13h 34m 55s
True Declination
0° 00' 00"
Sunlit
Object was in daylight at epoch
Visualization orbit readout
Latitude
Unknown
Longitude
Unknown
Altitude
Unknown
Speed
Unknown
Apparent Right ascension
Unknown
Apparent Declination
Unknown
Sunlit
N/A
Visualization observer readout
Local Sidereal Time
23:54:56
Azimuth
Unknown
Elevation
Unknown
Doppler factor
Unknown
Orbital elements
Apogee altitude
956.09 km
Perigee altitude
746.375 km
Semi-major axis
7,229.37 km
Eccentricity
0.0145
Inclination
98.7204°
RAAN
203.7301°
Arg. of periapsis
73.1226°
True anomaly
286.99499°
Mean anomaly
288.5794°
Eccentric anomaly
287.78809°
Mean motion
3.53096 °/min
Orbital period
101.96 mins
BSTAR
0.00076579
Loading maneuver chart data...
Computing Atmospheric mass density...
Loading historical data...
Loading historical data...
Loading historical data...
Loading historical data...
Loading historical data...
Loading historical data...
Loading historical data...

Documentation

Showing up to 5 results
|